Time,TemperatureF,DewpointF,PressureIn,WindDirection,WindDirectionDegrees,WindSpeedMPH,WindSpeedGustMPH,Humidity,HourlyPrecipIn,Conditions,Clouds,dailyrainin,SoftwareType,DateUTC
2013-05-17 00:01:00,69.9,61.2,29.82,NNW,338,0.0,0.0,74,0.00,,,0.00,WUHU216HW,2013-05-17 04:01:00,
2013-05-17 00:06:00,69.8,61.0,29.82,NNW,338,0.0,0.0,74,0.00,,,0.00,WUHU216HW,2013-05-17 04:06:00,
2013-05-17 00:11:00,69.6,60.8,29.83,NNW,338,0.0,0.0,74,0.00,,,0.00,WUHU216HW,2013-05-17 04:11:00,
2013-05-17 00:16:00,69.4,60.7,29.83,NNW,338,0.0,0.0,74,0.00,,,0.00,WUHU216HW,2013-05-17 04:16:00,
2013-05-17 00:21:00,69.4,61.1,29.83,NNW,338,0.0,0.0,75,0.00,,,0.00,WUHU216HW,2013-05-17 04:21:00,
2013-05-17 00:26:00,69.4,61.1,29.82,NNW,338,0.0,0.0,75,0.00,,,0.00,WUHU216HW,2013-05-17 04:26:00,
2013-05-17 00:31:00,69.4,61.1,29.82,NNW,338,0.0,0.0,75,0.00,,,0.00,WUHU216HW,2013-05-17 04:31:00,
2013-05-17 00:36:00,69.4,61.1,29.82,NNW,338,0.0,0.0,75,0.00,,,0.00,WUHU216HW,2013-05-17 04:36:00,
2013-05-17 00:41:00,69.4,61.1,29.82,NNW,338,0.0,0.0,75,0.00,,,0.00,WUHU216HW,2013-05-17 04:41:00,
2013-05-17 00:46:00,69.4,61.1,29.83,NNW,338,0.0,0.0,75,0.00,,,0.00,WUHU216HW,2013-05-17 04:46:00,
2013-05-17 00:51:00,69.2,61.3,29.83,NNW,338,0.0,0.0,76,0.00,,,0.00,WUHU216HW,2013-05-17 04:51:00,
2013-05-17 00:56:00,69.0,61.1,29.83,NNW,338,0.0,0.0,76,0.00,,,0.00,WUHU216HW,2013-05-17 04:56:00,
2013-05-17 01:01:00,69.0,60.9,29.83,NNW,338,0.0,0.0,76,0.00,,,0.00,WUHU216HW,2013-05-17 05:01:00,
2013-05-17 01:06:00,68.9,60.9,29.83,NNW,338,0.0,0.0,76,0.00,,,0.00,WUHU216HW,2013-05-17 05:06:00,
2013-05-17 01:11:00,68.7,60.8,29.83,NNW,338,0.0,0.0,76,0.00,,,0.00,WUHU216HW,2013-05-17 05:11:00,
2013-05-17 01:16:00,68.9,61.3,29.83,NNW,338,0.0,0.0,77,0.00,,,0.00,WUHU216HW,2013-05-17 05:16:00,
2013-05-17 01:21:00,68.9,61.3,29.83,NNW,338,0.0,0.0,77,0.00,,,0.00,WUHU216HW,2013-05-17 05:21:00,
2013-05-17 01:26:00,68.7,61.2,29.83,NNW,338,0.0,0.0,77,0.00,,,0.00,WUHU216HW,2013-05-17 05:26:00,
2013-05-17 01:31:00,68.7,61.2,29.82,NNW,338,0.0,0.0,77,0.00,,,0.00,WUHU216HW,2013-05-17 05:31:00,
2013-05-17 01:36:00,68.7,61.2,29.82,NNW,338,0.0,0.0,77,0.00,,,0.00,WUHU216HW,2013-05-17 05:36:00,
2013-05-17 01:41:00,68.7,61.2,29.82,NNW,338,0.0,0.0,77,0.00,,,0.00,WUHU216HW,2013-05-17 05:41:00,
2013-05-17 01:46:00,68.7,61.2,29.82,NNW,338,0.0,0.0,77,0.00,,,0.00,WUHU216HW,2013-05-17 05:46:00,
2013-05-17 01:51:00,68.7,61.2,29.83,NNW,338,0.0,0.0,77,0.00,,,0.00,WUHU216HW,2013-05-17 05:51:00,
2013-05-17 01:56:00,68.7,61.2,29.82,NNW,338,0.0,0.0,77,0.00,,,0.00,WUHU216HW,2013-05-17 05:56:00,
2013-05-17 02:01:00,68.5,61.0,29.82,NNW,338,0.0,0.0,77,0.00,,,0.00,WUHU216HW,2013-05-17 06:01:00,
2013-05-17 02:06:00,68.5,61.4,29.82,NNW,338,0.0,0.0,78,0.00,,,0.00,WUHU216HW,2013-05-17 06:06:00,
2013-05-17 02:11:00,68.5,61.4,29.82,NNW,338,0.0,0.0,78,0.00,,,0.00,WUHU216HW,2013-05-17 06:11:00,
2013-05-17 02:16:00,68.3,61.2,29.82,NNW,338,0.0,0.0,78,0.00,,,0.00,WUHU216HW,2013-05-17 06:16:00,
2013-05-17 02:21:00,68.1,61.1,29.82,NNW,338,0.0,0.0,78,0.00,,,0.00,WUHU216HW,2013-05-17 06:21:00,
2013-05-17 02:26:00,68.1,61.4,29.82,NNW,338,0.0,0.0,79,0.00,,,0.00,WUHU216HW,2013-05-17 06:26:00,
2013-05-17 02:31:00,67.8,61.3,29.82,NNW,338,0.0,0.0,79,0.00,,,0.00,WUHU216HW,2013-05-17 06:31:00,
2013-05-17 02:36:00,67.8,61.1,29.82,NNW,338,0.0,0.0,79,0.00,,,0.00,WUHU216HW,2013-05-17 06:36:00,
2013-05-17 02:41:00,67.8,61.1,29.81,NNW,338,0.0,0.0,79,0.00,,,0.00,WUHU216HW,2013-05-17 06:41:00,
2013-05-17 02:46:00,67.8,61.1,29.81,NNW,338,0.0,0.0,79,0.00,,,0.00,WUHU216HW,2013-05-17 06:46:00,
2013-05-17 02:51:00,67.8,61.1,29.82,NNW,338,0.0,0.0,79,0.00,,,0.00,WUHU216HW,2013-05-17 06:51:00,
2013-05-17 02:56:00,67.8,61.1,29.82,NNW,338,0.0,0.0,79,0.00,,,0.00,WUHU216HW,2013-05-17 06:56:00,
2013-05-17 03:01:00,67.8,61.1,29.81,NNW,338,0.0,0.0,79,0.00,,,0.00,WUHU216HW,2013-05-17 07:01:00,
2013-05-17 03:06:00,67.8,61.1,29.82,NNW,338,0.0,0.0,79,0.00,,,0.00,WUHU216HW,2013-05-17 07:06:00,
2013-05-17 03:11:00,67.8,61.1,29.82,NNW,338,0.0,0.0,79,0.00,,,0.00,WUHU216HW,2013-05-17 07:11:00,
2013-05-17 03:16:00,67.8,61.1,29.82,NNW,338,0.0,0.0,79,0.00,,,0.00,WUHU216HW,2013-05-17 07:16:00,
2013-05-17 03:21:00,67.8,61.1,29.82,North,0,0.0,0.0,79,0.00,,,0.00,WUHU216HW,2013-05-17 07:21:00,
2013-05-17 03:26:00,67.8,61.5,29.82,NNW,338,0.0,0.0,80,0.00,,,0.00,WUHU216HW,2013-05-17 07:26:00,
2013-05-17 03:31:00,67.8,61.5,29.82,NNW,338,0.0,0.0,80,0.00,,,0.00,WUHU216HW,2013-05-17 07:31:00,
2013-05-17 03:36:00,67.8,61.5,29.82,NNW,338,0.0,0.0,80,0.00,,,0.00,WUHU216HW,2013-05-17 07:36:00,
2013-05-17 03:41:00,67.8,61.5,29.82,NNW,338,0.0,0.0,80,0.00,,,0.00,WUHU216HW,2013-05-17 07:41:00,
2013-05-17 03:46:00,67.8,61.5,29.82,NNW,338,0.0,0.0,80,0.00,,,0.00,WUHU216HW,2013-05-17 07:46:00,
2013-05-17 03:51:00,67.8,61.5,29.82,NNW,338,0.0,0.0,80,0.00,,,0.00,WUHU216HW,2013-05-17 07:51:00,
2013-05-17 03:56:00,67.6,61.3,29.82,NNW,338,0.0,0.0,80,0.00,,,0.00,WUHU216HW,2013-05-17 07:56:00,
2013-05-17 04:01:00,67.6,61.3,29.83,NNW,338,0.0,0.0,80,0.00,,,0.00,WUHU216HW,2013-05-17 08:01:00,
2013-05-17 04:06:00,67.6,61.3,29.83,NNW,338,0.0,0.0,80,0.00,,,0.00,WUHU216HW,2013-05-17 08:06:00,
2013-05-17 04:10:00,67.2,60.9,29.83,NNW,338,0.0,0.0,80,0.00,,,0.00,WUHU216HW,2013-05-17 08:10:00,
2013-05-17 04:16:00,67.1,60.8,29.82,NNW,338,0.0,0.0,80,0.00,,,0.00,WUHU216HW,2013-05-17 08:16:00,
2013-05-17 04:21:00,66.9,60.6,29.82,NNW,338,0.0,0.0,80,0.00,,,0.00,WUHU216HW,2013-05-17 08:21:00,
2013-05-17 04:26:00,66.7,60.4,29.82,NNW,338,0.0,0.0,80,0.00,,,0.00,WUHU216HW,2013-05-17 08:26:00,
2013-05-17 04:31:00,66.7,60.4,29.82,NNW,338,0.0,0.0,80,0.00,,,0.00,WUHU216HW,2013-05-17 08:31:00,
2013-05-17 04:35:00,66.7,60.4,29.82,NNW,338,0.0,0.0,80,0.00,,,0.00,WUHU216HW,2013-05-17 08:35:00,
2013-05-17 04:40:00,66.5,60.2,29.82,NNW,338,0.0,0.0,80,0.00,,,0.00,WUHU216HW,2013-05-17 08:40:00,
2013-05-17 04:45:00,66.5,60.2,29.83,NNW,338,0.0,0.0,80,0.00,,,0.00,WUHU216HW,2013-05-17 08:45:00,
2013-05-17 04:50:00,66.5,60.2,29.83,NNW,338,0.0,0.0,80,0.00,,,0.00,WUHU216HW,2013-05-17 08:50:00,
2013-05-17 04:55:00,66.3,60.0,29.82,NNW,338,0.0,0.0,80,0.00,,,0.00,WUHU216HW,2013-05-17 08:55:00,
2013-05-17 05:00:00,66.3,60.0,29.82,NNW,338,0.0,0.0,80,0.00,,,0.00,WUHU216HW,2013-05-17 09:00:00,
2013-05-17 05:05:00,66.3,60.0,29.83,NNW,338,0.0,0.0,80,0.00,,,0.00,WUHU216HW,2013-05-17 09:05:00,
2013-05-17 05:10:00,66.3,60.0,29.83,NNW,338,0.0,0.0,80,0.00,,,0.00,WUHU216HW,2013-05-17 09:10:00,
2013-05-17 05:15:00,66.3,60.0,29.83,NNW,338,0.0,0.0,80,0.00,,,0.00,WUHU216HW,2013-05-17 09:15:00,
2013-05-17 05:20:00,66.3,60.0,29.84,NNW,338,0.0,0.0,80,0.00,,,0.00,WUHU216HW,2013-05-17 09:20:00,
2013-05-17 05:25:00,66.3,60.0,29.84,NNW,338,0.0,0.0,80,0.00,,,0.00,WUHU216HW,2013-05-17 09:25:00,
2013-05-17 05:30:00,66.0,59.7,29.84,NNW,338,0.0,0.0,80,0.00,,,0.00,WUHU216HW,2013-05-17 09:30:00,
2013-05-17 05:35:00,66.0,59.7,29.84,NNW,338,0.0,0.0,80,0.00,,,0.00,WUHU216HW,2013-05-17 09:35:00,
2013-05-17 05:40:00,66.0,59.7,29.84,NNW,338,0.0,0.0,80,0.00,,,0.00,WUHU216HW,2013-05-17 09:40:00,
2013-05-17 05:45:00,66.0,59.7,29.84,NNW,338,0.0,0.0,80,0.00,,,0.00,WUHU216HW,2013-05-17 09:45:00,
2013-05-17 05:50:00,65.8,59.5,29.84,NNW,338,0.0,0.0,80,0.00,,,0.00,WUHU216HW,2013-05-17 09:50:00,
2013-05-17 05:55:00,65.4,59.1,29.85,NNW,338,0.0,0.0,80,0.00,,,0.00,WUHU216HW,2013-05-17 09:55:00,
2013-05-17 06:00:00,65.3,59.0,29.85,NNW,338,0.0,0.0,80,0.00,,,0.00,WUHU216HW,2013-05-17 10:00:00,
2013-05-17 06:05:00,65.1,59.1,29.85,NNW,338,0.0,0.0,81,0.00,,,0.00,WUHU216HW,2013-05-17 10:05:00,
2013-05-17 06:10:00,64.9,58.9,29.85,NNW,338,0.0,0.0,81,0.00,,,0.00,WUHU216HW,2013-05-17 10:10:00,
2013-05-17 06:15:00,64.9,58.9,29.85,NNW,338,0.0,0.0,81,0.00,,,0.00,WUHU216HW,2013-05-17 10:15:00,
2013-05-17 06:20:00,64.9,58.9,29.85,NNW,338,0.0,0.0,81,0.00,,,0.00,WUHU216HW,2013-05-17 10:20:00,
2013-05-17 06:25:00,64.7,58.7,29.85,NNW,338,0.0,0.0,81,0.00,,,0.00,WUHU216HW,2013-05-17 10:25:00,
2013-05-17 06:30:00,64.5,58.6,29.85,NNW,338,0.0,0.0,81,0.00,,,0.00,WUHU216HW,2013-05-17 10:30:00,
2013-05-17 06:35:00,64.4,58.6,29.85,NNW,338,0.0,0.0,81,0.00,,,0.00,WUHU216HW,2013-05-17 10:35:00,
2013-05-17 06:40:00,64.2,58.2,29.85,NNW,338,0.0,0.0,81,0.00,,,0.00,WUHU216HW,2013-05-17 10:40:00,
2013-05-17 06:45:00,64.2,58.2,29.86,SSE,158,0.0,0.0,81,0.00,,,0.00,WUHU216HW,2013-05-17 10:45:00,
2013-05-17 06:50:00,64.2,58.7,29.85,SSE,158,0.0,0.0,82,0.00,,,0.00,WUHU216HW,2013-05-17 10:50:00,
2013-05-17 06:55:00,64.2,58.6,29.86,SSE,158,0.0,0.0,82,0.00,,,0.00,WUHU216HW,2013-05-17 10:55:00,
2013-05-17 07:00:00,64.5,58.9,29.86,SSE,158,0.0,0.0,82,0.00,,,0.00,WUHU216HW,2013-05-17 11:00:00,
2013-05-17 07:05:00,64.5,58.9,29.86,SSE,158,0.0,0.0,82,0.00,,,0.00,WUHU216HW,2013-05-17 11:05:00,
2013-05-17 07:10:00,64.7,59.1,29.86,SSE,158,0.0,0.0,82,0.00,,,0.00,WUHU216HW,2013-05-17 11:10:00,
2013-05-17 07:15:00,64.7,59.1,29.86,SSE,158,0.0,0.0,82,0.00,,,0.00,WUHU216HW,2013-05-17 11:15:00,
2013-05-17 07:20:00,64.9,59.3,29.86,SSE,158,0.0,0.0,82,0.00,,,0.00,WUHU216HW,2013-05-17 11:20:00,
2013-05-17 07:25:00,64.9,59.3,29.87,SSE,158,0.0,0.0,82,0.00,,,0.00,WUHU216HW,2013-05-17 11:25:00,
2013-05-17 07:30:00,65.1,59.8,29.87,SSE,158,0.0,0.0,83,0.00,,,0.00,WUHU216HW,2013-05-17 11:30:00,
2013-05-17 07:35:00,65.3,59.9,29.87,SSE,158,0.0,0.0,83,0.00,,,0.00,WUHU216HW,2013-05-17 11:35:00,
2013-05-17 07:40:00,65.3,59.9,29.87,SSE,158,0.0,0.0,83,0.00,,,0.00,WUHU216HW,2013-05-17 11:40:00,
2013-05-17 07:45:00,65.3,59.9,29.87,SSE,158,0.0,0.0,83,0.00,,,0.00,WUHU216HW,2013-05-17 11:45:00,
2013-05-17 07:50:00,65.3,59.9,29.87,SSE,158,0.0,0.0,83,0.00,,,0.00,WUHU216HW,2013-05-17 11:50:00,
2013-05-17 07:55:00,65.3,59.9,29.87,SSE,158,0.0,0.0,83,0.00,,,0.00,WUHU216HW,2013-05-17 11:55:00,
2013-05-17 08:00:00,65.3,59.9,29.87,SSE,158,0.0,0.0,83,0.00,,,0.00,WUHU216HW,2013-05-17 12:00:00,
2013-05-17 08:05:00,65.4,60.1,29.87,SSE,158,0.0,0.0,83,0.00,,,0.00,WUHU216HW,2013-05-17 12:05:00,
2013-05-17 08:10:00,65.8,60.5,29.88,South,180,0.0,0.0,83,0.00,,,0.00,WUHU216HW,2013-05-17 12:10:00,
2013-05-17 08:15:00,66.0,60.6,29.87,South,180,0.0,0.0,83,0.00,,,0.00,WUHU216HW,2013-05-17 12:15:00,
2013-05-17 08:20:00,66.0,60.6,29.87,SW,225,0.0,0.0,83,0.00,,,0.00,WUHU216HW,2013-05-17 12:20:00,
2013-05-17 08:25:00,66.3,61.0,29.87,SSE,158,0.0,0.0,83,0.00,,,0.00,WUHU216HW,2013-05-17 12:25:00,
2013-05-17 08:30:00,66.5,61.2,29.87,NW,315,0.0,0.0,83,0.00,,,0.00,WUHU216HW,2013-05-17 12:30:00,
2013-05-17 08:35:00,66.7,61.0,29.88,SSW,203,0.0,0.0,82,0.00,,,0.00,WUHU216HW,2013-05-17 12:35:00,
2013-05-17 08:40:00,66.9,61.7,29.88,SE,135,0.0,0.0,83,0.00,,,0.00,WUHU216HW,2013-05-17 12:40:00,
2013-05-17 08:45:00,67.2,61.6,29.87,SSW,203,0.0,0.0,82,0.00,,,0.00,WUHU216HW,2013-05-17 12:45:00,
2013-05-17 08:50:00,67.6,61.9,29.88,South,180,0.0,0.0,82,0.00,,,0.00,WUHU216HW,2013-05-17 12:50:00,
2013-05-17 08:55:00,67.8,62.1,29.88,East,90,0.0,0.0,82,0.00,,,0.00,WUHU216HW,2013-05-17 12:55:00,
2013-05-17 09:00:00,68.1,62.1,29.88,South,180,0.0,0.0,81,0.00,,,0.00,WUHU216HW,2013-05-17 13:00:00,
2013-05-17 09:05:00,68.3,62.3,29.88,SW,225,0.0,0.0,81,0.00,,,0.00,WUHU216HW,2013-05-17 13:05:00,
2013-05-17 09:10:00,68.7,62.6,29.88,SW,225,0.0,0.0,81,0.00,,,0.00,WUHU216HW,2013-05-17 13:10:00,
2013-05-17 09:15:00,68.9,62.8,29.88,South,180,0.0,0.0,81,0.00,,,0.00,WUHU216HW,2013-05-17 13:15:00,
2013-05-17 09:20:00,69.2,62.8,29.88,South,180,0.0,0.0,80,0.00,,,0.00,WUHU216HW,2013-05-17 13:20:00,
2013-05-17 09:25:00,69.6,63.1,29.88,South,180,0.0,0.0,80,0.00,,,0.00,WUHU216HW,2013-05-17 13:25:00,
2013-05-17 09:30:00,69.8,63.3,29.88,South,180,0.0,0.0,80,0.00,,,0.00,WUHU216HW,2013-05-17 13:30:00,
2013-05-17 09:35:00,70.3,63.8,29.88,NW,315,0.0,0.0,80,0.00,,,0.00,WUHU216HW,2013-05-17 13:35:00,
2013-05-17 09:40:00,70.5,63.6,29.89,NNW,338,0.0,0.0,79,0.00,,,0.00,WUHU216HW,2013-05-17 13:40:00,
2013-05-17 09:45:00,70.7,63.8,29.88,WSW,248,0.0,0.0,79,0.00,,,0.00,WUHU216HW,2013-05-17 13:45:00,
2013-05-17 09:50:00,71.2,64.3,29.88,SE,135,0.0,0.0,79,0.00,,,0.00,WUHU216HW,2013-05-17 13:50:00,
2013-05-17 09:55:00,71.4,64.1,29.88,West,270,0.0,0.0,78,0.00,,,0.00,WUHU216HW,2013-05-17 13:55:00,
2013-05-17 10:00:00,71.7,64.9,29.88,SSE,158,0.0,0.0,79,0.00,,,0.00,WUHU216HW,2013-05-17 14:00:00,
2013-05-17 10:05:00,72.1,64.9,29.89,WSW,248,0.0,0.0,78,0.00,,,0.00,WUHU216HW,2013-05-17 14:05:00,
2013-05-17 10:10:00,72.3,64.7,29.88,SSW,203,0.0,0.0,77,0.00,,,0.00,WUHU216HW,2013-05-17 14:10:00,
2013-05-17 10:15:00,72.3,64.7,29.89,South,180,0.0,0.0,77,0.00,,,0.00,WUHU216HW,2013-05-17 14:15:00,
2013-05-17 10:20:00,72.6,65.0,29.88,SW,225,0.0,0.0,77,0.00,,,0.00,WUHU216HW,2013-05-17 14:20:00,
2013-05-17 10:25:00,73.0,65.4,29.89,SW,225,0.0,0.0,77,0.00,,,0.00,WUHU216HW,2013-05-17 14:25:00,
2013-05-17 10:30:00,73.2,65.2,29.88,NW,315,0.0,0.0,76,0.00,,,0.00,WUHU216HW,2013-05-17 14:30:00,
2013-05-17 10:35:00,73.5,65.5,29.89,SW,225,0.0,0.0,76,0.00,,,0.00,WUHU216HW,2013-05-17 14:35:00,
2013-05-17 10:40:00,73.9,65.9,29.89,SW,225,0.0,0.0,76,0.00,,,0.00,WUHU216HW,2013-05-17 14:40:00,
2013-05-17 10:45:00,74.3,65.8,29.89,West,270,0.0,0.0,75,0.00,,,0.00,WUHU216HW,2013-05-17 14:45:00,
2013-05-17 10:50:00,74.6,66.2,29.89,North,0,0.0,0.0,75,0.00,,,0.00,WUHU216HW,2013-05-17 14:50:00,
2013-05-17 10:55:00,75.0,66.1,29.89,SW,225,0.0,0.0,74,0.00,,,0.00,WUHU216HW,2013-05-17 14:55:00,
2013-05-17 11:00:00,75.3,66.5,29.89,SW,225,0.0,0.0,74,0.00,,,0.00,WUHU216HW,2013-05-17 15:00:00,
2013-05-17 11:05:00,75.7,66.4,29.89,South,180,0.0,0.0,73,0.00,,,0.00,WUHU216HW,2013-05-17 15:05:00,
2013-05-17 11:10:00,75.7,66.0,29.89,NE,45,0.0,0.0,72,0.00,,,0.00,WUHU216HW,2013-05-17 15:10:00,
2013-05-17 11:15:00,75.9,66.6,29.89,ENE,68,0.0,0.0,73,0.00,,,0.00,WUHU216HW,2013-05-17 15:15:00,
2013-05-17 11:20:00,76.2,66.5,29.89,North,0,0.0,0.0,72,0.00,,,0.00,WUHU216HW,2013-05-17 15:20:00,
2013-05-17 11:25:00,76.6,66.5,29.89,WSW,248,0.0,0.0,71,0.00,,,0.00,WUHU216HW,2013-05-17 15:25:00,
2013-05-17 11:30:00,76.8,66.3,29.89,NE,45,0.0,0.0,70,0.00,,,0.00,WUHU216HW,2013-05-17 15:30:00,
2013-05-17 11:35:00,77.0,66.1,29.89,SSE,158,0.0,0.0,69,0.00,,,0.00,WUHU216HW,2013-05-17 15:35:00,
2013-05-17 11:40:00,77.3,66.4,29.89,SSW,203,0.0,0.0,69,0.00,,,0.00,WUHU216HW,2013-05-17 15:40:00,
2013-05-17 11:45:00,77.5,66.3,29.89,South,180,0.0,0.0,68,0.00,,,0.00,WUHU216HW,2013-05-17 15:45:00,
2013-05-17 11:50:00,78.0,66.6,29.89,SW,225,0.0,0.0,68,0.00,,,0.00,WUHU216HW,2013-05-17 15:50:00,
2013-05-17 11:55:00,78.2,65.9,29.89,SSW,203,0.0,0.0,66,0.00,,,0.00,WUHU216HW,2013-05-17 15:55:00,
2013-05-17 12:00:00,78.6,66.2,29.89,SW,225,0.0,0.0,66,0.00,,,0.00,WUHU216HW,2013-05-17 16:00:00,
2013-05-17 12:05:00,78.6,66.7,29.89,NW,315,0.0,0.0,66,0.00,,,0.00,WUHU216HW,2013-05-17 16:05:00,
2013-05-17 12:10:00,78.6,65.8,29.89,NNW,338,0.0,0.0,65,0.00,,,0.00,WUHU216HW,2013-05-17 16:10:00,
2013-05-17 12:15:00,78.6,65.8,29.89,NW,315,0.0,0.0,65,0.00,,,0.00,WUHU216HW,2013-05-17 16:15:00,
2013-05-17 12:20:00,78.8,66.0,29.88,NNW,338,0.0,0.0,65,0.00,,,0.00,WUHU216HW,2013-05-17 16:20:00,
2013-05-17 12:25:00,79.1,66.3,29.88,SSW,203,0.0,0.0,65,0.00,,,0.00,WUHU216HW,2013-05-17 16:25:00,
2013-05-17 12:30:00,79.3,67.1,29.88,WSW,248,0.0,0.0,66,0.00,,,0.00,WUHU216HW,2013-05-17 16:30:00,
2013-05-17 12:35:00,79.7,67.3,29.88,West,270,0.0,0.0,66,0.00,,,0.00,WUHU216HW,2013-05-17 16:35:00,
2013-05-17 12:40:00,79.8,66.5,29.88,North,0,0.0,0.0,64,0.00,,,0.00,WUHU216HW,2013-05-17 16:40:00,
2013-05-17 12:45:00,80.0,66.3,29.88,NNW,338,0.0,0.0,63,0.00,,,0.00,WUHU216HW,2013-05-17 16:45:00,
2013-05-17 12:50:00,80.2,66.9,29.88,SW,225,0.0,0.0,64,0.00,,,0.00,WUHU216HW,2013-05-17 16:50:00,
2013-05-17 12:55:00,80.2,66.4,29.87,NW,315,0.0,0.0,63,0.00,,,0.00,WUHU216HW,2013-05-17 16:55:00,
2013-05-17 13:00:00,80.0,66.3,29.87,NNW,338,0.0,0.0,63,0.00,,,0.00,WUHU216HW,2013-05-17 17:00:00,
2013-05-17 13:05:00,79.8,66.5,29.87,SSE,158,0.0,0.0,64,0.00,,,0.00,WUHU216HW,2013-05-17 17:05:00,
2013-05-17 13:10:00,80.2,66.9,29.87,East,90,0.0,0.0,63,0.00,,,0.00,WUHU216HW,2013-05-17 17:10:00,
2013-05-17 13:15:00,80.4,66.6,29.87,SW,225,0.0,0.0,63,0.00,,,0.00,WUHU216HW,2013-05-17 17:15:00,
2013-05-17 13:20:00,80.6,66.3,29.87,SSE,158,0.0,0.0,62,0.00,,,0.00,WUHU216HW,2013-05-17 17:20:00,
2013-05-17 13:25:00,81.1,67.7,29.87,South,180,0.0,0.0,64,0.00,,,0.00,WUHU216HW,2013-05-17 17:25:00,
2013-05-17 13:30:00,81.5,66.9,29.87,SSW,203,0.0,0.0,62,0.00,,,0.00,WUHU216HW,2013-05-17 17:30:00,
2013-05-17 13:35:00,82.0,67.6,29.87,South,180,0.0,0.0,62,0.00,,,0.00,WUHU216HW,2013-05-17 17:35:00,
2013-05-17 13:40:00,82.0,66.7,29.87,SSW,203,0.0,0.0,60,0.00,,,0.00,WUHU216HW,2013-05-17 17:40:00,
2013-05-17 13:45:00,82.2,67.3,29.87,SW,225,0.0,0.0,61,0.00,,,0.00,WUHU216HW,2013-05-17 17:45:00,
2013-05-17 13:51:00,82.5,66.7,29.87,West,270,0.0,0.0,59,0.00,,,0.00,WUHU216HW,2013-05-17 17:51:00,
2013-05-17 13:56:00,82.5,66.7,29.86,SSE,158,0.0,0.0,59,0.00,,,0.00,WUHU216HW,2013-05-17 17:56:00,
2013-05-17 14:01:00,82.9,67.6,29.86,SSE,158,0.0,0.0,60,0.00,,,0.00,WUHU216HW,2013-05-17 18:01:00,
2013-05-17 14:06:00,83.1,66.7,29.86,NE,45,0.0,0.0,58,0.00,,,0.00,WUHU216HW,2013-05-17 18:06:00,
2013-05-17 14:11:00,83.3,66.9,29.86,SSW,203,0.0,0.0,58,0.00,,,0.00,WUHU216HW,2013-05-17 18:11:00,
2013-05-17 14:16:00,83.4,66.6,29.86,West,270,0.0,0.0,57,0.00,,,0.00,WUHU216HW,2013-05-17 18:16:00,
2013-05-17 14:21:00,83.4,67.1,29.87,WSW,248,0.0,0.0,58,0.00,,,0.00,WUHU216HW,2013-05-17 18:21:00,
2013-05-17 14:26:00,83.3,66.0,29.86,West,270,0.0,0.0,56,0.00,,,0.00,WUHU216HW,2013-05-17 18:26:00,
2013-05-17 14:31:00,83.1,66.2,29.86,West,270,0.0,0.0,57,0.00,,,0.00,WUHU216HW,2013-05-17 18:31:00,
2013-05-17 14:36:00,82.9,66.0,29.87,SSW,203,0.0,0.0,57,0.00,,,0.00,WUHU216HW,2013-05-17 18:36:00,
2013-05-17 14:41:00,82.9,66.0,29.87,SSW,203,0.0,0.0,57,0.00,,,0.00,WUHU216HW,2013-05-17 18:41:00,
2013-05-17 14:46:00,82.9,66.0,29.86,ESE,113,0.0,0.0,57,0.00,,,0.00,WUHU216HW,2013-05-17 18:46:00,
2013-05-17 14:51:00,83.3,66.9,29.86,South,180,0.0,0.0,58,0.00,,,0.00,WUHU216HW,2013-05-17 18:51:00,
2013-05-17 14:56:00,83.8,67.6,29.86,South,180,0.0,0.0,59,0.00,,,0.00,WUHU216HW,2013-05-17 18:56:00,
2013-05-17 15:01:00,84.0,67.6,29.86,SE,135,0.0,0.0,58,0.00,,,0.00,WUHU216HW,2013-05-17 19:01:00,
2013-05-17 15:06:00,84.0,67.1,29.86,West,270,0.0,0.0,57,0.00,,,0.00,WUHU216HW,2013-05-17 19:06:00,
2013-05-17 15:11:00,84.0,67.1,29.86,SSE,158,0.0,0.0,57,0.00,,,0.00,WUHU216HW,2013-05-17 19:11:00,
2013-05-17 15:16:00,84.0,67.1,29.86,SW,225,0.0,0.0,57,0.00,,,0.00,WUHU216HW,2013-05-17 19:16:00,
2013-05-17 15:21:00,83.8,66.4,29.85,WSW,248,0.0,0.0,56,0.00,,,0.00,WUHU216HW,2013-05-17 19:21:00,
2013-05-17 15:26:00,83.4,66.6,29.85,WSW,248,0.0,0.0,57,0.00,,,0.00,WUHU216HW,2013-05-17 19:26:00,
2013-05-17 15:31:00,83.4,67.1,29.85,WSW,248,0.0,0.0,58,0.00,,,0.00,WUHU216HW,2013-05-17 19:31:00,
2013-05-17 15:36:00,83.6,66.2,29.85,SW,225,0.0,0.0,56,0.00,,,0.00,WUHU216HW,2013-05-17 19:36:00,
2013-05-17 15:41:00,83.8,66.4,29.85,West,270,0.0,0.0,55,0.00,,,0.00,WUHU216HW,2013-05-17 19:41:00,
2013-05-17 15:46:00,84.0,66.1,29.85,SE,135,0.0,0.0,55,0.00,,,0.00,WUHU216HW,2013-05-17 19:46:00,
2013-05-17 15:51:00,84.0,66.1,29.85,SW,225,0.0,0.0,55,0.00,,,0.00,WUHU216HW,2013-05-17 19:51:00,
2013-05-17 15:56:00,84.2,66.2,29.85,SSW,203,0.0,0.0,55,0.00,,,0.00,WUHU216HW,2013-05-17 19:56:00,
2013-05-17 16:01:00,84.2,66.2,29.85,SSW,203,0.0,0.0,55,0.00,,,0.00,WUHU216HW,2013-05-17 20:01:00,
2013-05-17 16:06:00,84.3,65.9,29.84,West,270,0.0,0.0,54,0.00,,,0.00,WUHU216HW,2013-05-17 20:06:00,
2013-05-17 16:11:00,84.3,65.9,29.84,ESE,113,0.0,0.0,54,0.00,,,0.00,WUHU216HW,2013-05-17 20:11:00,
2013-05-17 16:16:00,84.3,65.9,29.84,SSE,158,0.0,0.0,54,0.00,,,0.00,WUHU216HW,2013-05-17 20:16:00,
2013-05-17 16:21:00,84.3,65.9,29.84,South,180,0.0,0.0,54,0.00,,,0.00,WUHU216HW,2013-05-17 20:21:00,
2013-05-17 16:26:00,84.3,65.9,29.84,SW,225,0.0,0.0,54,0.00,,,0.00,WUHU216HW,2013-05-17 20:26:00,
2013-05-17 16:31:00,84.3,65.4,29.84,West,270,0.0,0.0,53,0.00,,,0.00,WUHU216HW,2013-05-17 20:31:00,
2013-05-17 16:36:00,84.3,65.9,29.84,SSE,158,0.0,0.0,54,0.00,,,0.00,WUHU216HW,2013-05-17 20:36:00,
2013-05-17 16:41:00,84.2,65.7,29.84,WSW,248,0.0,0.0,54,0.00,,,0.00,WUHU216HW,2013-05-17 20:41:00,
2013-05-17 16:46:00,84.2,65.7,29.84,SW,225,0.0,0.0,54,0.00,,,0.00,WUHU216HW,2013-05-17 20:46:00,
2013-05-17 16:51:00,84.2,65.7,29.84,West,270,0.0,0.0,54,0.00,,,0.00,WUHU216HW,2013-05-17 20:51:00,
2013-05-17 16:56:00,84.2,65.2,29.84,SSW,203,0.0,0.0,53,0.00,,,0.00,WUHU216HW,2013-05-17 20:56:00,
2013-05-17 17:01:00,84.0,65.0,29.83,WSW,248,0.0,0.0,53,0.00,,,0.00,WUHU216HW,2013-05-17 21:01:00,
2013-05-17 17:06:00,84.0,65.0,29.83,West,270,0.0,0.0,53,0.00,,,0.00,WUHU216HW,2013-05-17 21:06:00,
2013-05-17 17:11:00,84.0,64.5,29.84,South,180,0.0,0.0,52,0.00,,,0.00,WUHU216HW,2013-05-17 21:11:00,
2013-05-17 17:16:00,83.8,64.8,29.84,SW,225,0.0,0.0,53,0.00,,,0.00,WUHU216HW,2013-05-17 21:16:00,
2013-05-17 17:21:00,83.4,64.5,29.83,WSW,248,0.0,0.0,53,0.00,,,0.00,WUHU216HW,2013-05-17 21:21:00,
2013-05-17 17:26:00,83.1,63.6,29.84,SSE,158,0.0,0.0,52,0.00,,,0.00,WUHU216HW,2013-05-17 21:26:00,
2013-05-17 17:31:00,82.9,63.9,29.85,South,180,0.0,0.0,53,0.00,,,0.00,WUHU216HW,2013-05-17 21:31:00,
2013-05-17 17:36:00,82.5,63.6,29.84,SSW,203,0.0,0.0,53,0.00,,,0.00,WUHU216HW,2013-05-17 21:36:00,
2013-05-17 17:41:00,82.5,64.1,29.85,SW,225,0.0,0.0,54,0.00,,,0.00,WUHU216HW,2013-05-17 21:41:00,
2013-05-17 17:46:00,82.4,64.1,29.84,West,270,0.0,0.0,54,0.00,,,0.00,WUHU216HW,2013-05-17 21:46:00,
2013-05-17 17:51:00,82.2,63.8,29.84,SW,225,0.0,0.0,54,0.00,,,0.00,WUHU216HW,2013-05-17 21:51:00,
2013-05-17 17:56:00,82.2,63.8,29.84,SE,135,0.0,0.0,54,0.00,,,0.00,WUHU216HW,2013-05-17 21:56:00,
2013-05-17 18:01:00,82.2,63.8,29.84,South,180,0.0,0.0,54,0.00,,,0.00,WUHU216HW,2013-05-17 22:01:00,
2013-05-17 18:06:00,82.2,63.2,29.84,South,180,0.0,0.0,53,0.00,,,0.00,WUHU216HW,2013-05-17 22:06:00,
2013-05-17 18:11:00,82.2,63.8,29.84,SE,135,0.0,0.0,54,0.00,,,0.00,WUHU216HW,2013-05-17 22:11:00,
2013-05-17 18:16:00,82.2,63.8,29.84,WSW,248,0.0,0.0,54,0.00,,,0.00,WUHU216HW,2013-05-17 22:16:00,
2013-05-17 18:21:00,82.2,63.8,29.84,SW,225,0.0,0.0,54,0.00,,,0.00,WUHU216HW,2013-05-17 22:21:00,
2013-05-17 18:26:00,82.2,63.2,29.84,WNW,293,0.0,0.0,53,0.00,,,0.00,WUHU216HW,2013-05-17 22:26:00,
2013-05-17 18:31:00,82.2,63.2,29.83,SW,225,0.0,0.0,53,0.00,,,0.00,WUHU216HW,2013-05-17 22:31:00,
2013-05-17 18:36:00,82.2,63.2,29.83,South,180,0.0,0.0,53,0.00,,,0.00,WUHU216HW,2013-05-17 22:36:00,
2013-05-17 18:41:00,82.2,63.2,29.83,South,180,0.0,0.0,53,0.00,,,0.00,WUHU216HW,2013-05-17 22:41:00,
2013-05-17 18:46:00,82.2,62.7,29.83,SE,135,0.0,0.0,52,0.00,,,0.00,WUHU216HW,2013-05-17 22:46:00,
2013-05-17 18:51:00,82.2,62.7,29.83,SW,225,0.0,0.0,52,0.00,,,0.00,WUHU216HW,2013-05-17 22:51:00,
2013-05-17 18:56:00,82.0,62.6,29.83,WSW,248,0.0,0.0,52,0.00,,,0.00,WUHU216HW,2013-05-17 22:56:00,
2013-05-17 19:01:00,81.6,62.2,29.83,SSE,158,0.0,0.0,52,0.00,,,0.00,WUHU216HW,2013-05-17 23:01:00,
2013-05-17 19:06:00,81.6,62.2,29.83,SW,225,0.0,0.0,52,0.00,,,0.00,WUHU216HW,2013-05-17 23:06:00,
2013-05-17 19:11:00,81.3,62.1,29.84,SW,225,0.0,0.0,52,0.00,,,0.00,WUHU216HW,2013-05-17 23:11:00,
2013-05-17 19:16:00,81.3,62.4,29.84,South,180,0.0,0.0,53,0.00,,,0.00,WUHU216HW,2013-05-17 23:16:00,
2013-05-17 19:21:00,81.1,62.3,29.84,South,180,0.0,0.0,53,0.00,,,0.00,WUHU216HW,2013-05-17 23:21:00,
2013-05-17 19:26:00,80.7,62.5,29.84,South,180,0.0,0.0,54,0.00,,,0.00,WUHU216HW,2013-05-17 23:26:00,
2013-05-17 19:31:00,80.7,62.5,29.84,South,180,0.0,0.0,54,0.00,,,0.00,WUHU216HW,2013-05-17 23:31:00,
2013-05-17 19:36:00,80.4,62.7,29.85,SSW,203,0.0,0.0,55,0.00,,,0.00,WUHU216HW,2013-05-17 23:36:00,
2013-05-17 19:41:00,80.2,62.5,29.85,SSW,203,0.0,0.0,55,0.00,,,0.00,WUHU216HW,2013-05-17 23:41:00,
2013-05-17 19:46:00,79.8,62.7,29.85,South,180,0.0,0.0,56,0.00,,,0.00,WUHU216HW,2013-05-17 23:46:00,
2013-05-17 19:51:00,79.5,62.4,29.85,South,180,0.0,0.0,56,0.00,,,0.00,WUHU216HW,2013-05-17 23:51:00,
2013-05-17 19:56:00,79.1,62.7,29.85,South,180,0.0,0.0,57,0.00,,,0.00,WUHU216HW,2013-05-17 23:56:00,
2013-05-17 20:01:00,78.9,62.4,29.85,South,180,0.0,0.0,57,0.00,,,0.00,WUHU216HW,2013-05-18 00:01:00,
2013-05-17 20:06:00,78.6,62.6,29.85,South,180,0.0,0.0,58,0.00,,,0.00,WUHU216HW,2013-05-18 00:06:00,
2013-05-17 20:11:00,78.4,62.6,29.85,South,180,0.0,0.0,58,0.00,,,0.00,WUHU216HW,2013-05-18 00:11:00,
2013-05-17 20:16:00,78.0,62.6,29.85,South,180,0.0,0.0,59,0.00,,,0.00,WUHU216HW,2013-05-18 00:16:00,
2013-05-17 20:21:00,77.9,62.9,29.85,South,180,0.0,0.0,60,0.00,,,0.00,WUHU216HW,2013-05-18 00:21:00,
2013-05-17 20:26:00,77.5,62.6,29.85,South,180,0.0,0.0,60,0.00,,,0.00,WUHU216HW,2013-05-18 00:26:00,
2013-05-17 20:31:00,77.3,62.8,29.85,South,180,0.0,0.0,61,0.00,,,0.00,WUHU216HW,2013-05-18 00:31:00,
2013-05-17 20:36:00,77.1,62.6,29.85,South,180,0.0,0.0,61,0.00,,,0.00,WUHU216HW,2013-05-18 00:36:00,
2013-05-17 20:41:00,76.8,62.3,29.85,South,180,0.0,0.0,61,0.00,,,0.00,WUHU216HW,2013-05-18 00:41:00,
2013-05-17 20:46:00,76.6,62.6,29.85,South,180,0.0,0.0,62,0.00,,,0.00,WUHU216HW,2013-05-18 00:46:00,
2013-05-17 20:51:00,76.4,62.9,29.85,South,180,0.0,0.0,63,0.00,,,0.00,WUHU216HW,2013-05-18 00:51:00,
2013-05-17 20:56:00,76.1,62.5,29.86,South,180,0.0,0.0,63,0.00,,,0.00,WUHU216HW,2013-05-18 00:56:00,
2013-05-17 21:01:00,75.9,62.8,29.86,South,180,0.0,0.0,64,0.00,,,0.00,WUHU216HW,2013-05-18 01:01:00,
2013-05-17 21:06:00,75.7,63.1,29.86,South,180,0.0,0.0,65,0.00,,,0.00,WUHU216HW,2013-05-18 01:06:00,
2013-05-17 21:11:00,75.5,62.9,29.87,South,180,0.0,0.0,65,0.00,,,0.00,WUHU216HW,2013-05-18 01:11:00,
2013-05-17 21:16:00,75.3,62.7,29.87,South,180,0.0,0.0,65,0.00,,,0.00,WUHU216HW,2013-05-18 01:16:00,
2013-05-17 21:21:00,75.3,62.6,29.87,South,180,0.0,0.0,65,0.00,,,0.00,WUHU216HW,2013-05-18 01:21:00,
2013-05-17 21:26:00,75.0,62.4,29.87,South,180,0.0,0.0,65,0.00,,,0.00,WUHU216HW,2013-05-18 01:26:00,
2013-05-17 21:31:00,74.8,62.2,29.87,South,180,0.0,0.0,65,0.00,,,0.00,WUHU216HW,2013-05-18 01:31:00,
2013-05-17 21:36:00,74.8,62.6,29.87,South,180,0.0,0.0,66,0.00,,,0.00,WUHU216HW,2013-05-18 01:36:00,
2013-05-17 21:41:00,74.6,62.5,29.87,South,180,0.0,0.0,66,0.00,,,0.00,WUHU216HW,2013-05-18 01:41:00,
2013-05-17 21:46:00,74.4,62.3,29.87,South,180,0.0,0.0,66,0.00,,,0.00,WUHU216HW,2013-05-18 01:46:00,
2013-05-17 21:51:00,74.3,62.1,29.87,South,180,0.0,0.0,66,0.00,,,0.00,WUHU216HW,2013-05-18 01:51:00,
2013-05-17 21:56:00,74.1,62.0,29.88,South,180,0.0,0.0,66,0.00,,,0.00,WUHU216HW,2013-05-18 01:56:00,
2013-05-17 22:01:00,74.1,62.0,29.88,South,180,0.0,0.0,66,0.00,,,0.00,WUHU216HW,2013-05-18 02:01:00,
2013-05-17 22:06:00,73.9,62.2,29.88,South,180,0.0,0.0,67,0.00,,,0.00,WUHU216HW,2013-05-18 02:06:00,
2013-05-17 22:11:00,73.7,62.2,29.88,South,180,0.0,0.0,67,0.00,,,0.00,WUHU216HW,2013-05-18 02:11:00,
2013-05-17 22:16:00,73.7,62.1,29.88,South,180,0.0,0.0,67,0.00,,,0.00,WUHU216HW,2013-05-18 02:16:00,
2013-05-17 22:21:00,73.5,61.9,29.88,South,180,0.0,0.0,67,0.00,,,0.00,WUHU216HW,2013-05-18 02:21:00,
2013-05-17 22:26:00,73.4,62.2,29.88,South,180,0.0,0.0,68,0.00,,,0.00,WUHU216HW,2013-05-18 02:26:00,
2013-05-17 22:31:00,73.2,62.0,29.88,South,180,0.0,0.0,68,0.00,,,0.00,WUHU216HW,2013-05-18 02:31:00,
2013-05-17 22:36:00,73.2,62.0,29.89,South,180,0.0,0.0,68,0.00,,,0.00,WUHU216HW,2013-05-18 02:36:00,
2013-05-17 22:41:00,73.0,61.8,29.89,South,180,0.0,0.0,68,0.00,,,0.00,WUHU216HW,2013-05-18 02:41:00,
2013-05-17 22:46:00,72.8,62.1,29.89,South,180,0.0,0.0,69,0.00,,,0.00,WUHU216HW,2013-05-18 02:46:00,
2013-05-17 22:51:00,72.6,61.9,29.88,South,180,0.0,0.0,69,0.00,,,0.00,WUHU216HW,2013-05-18 02:51:00,
2013-05-17 22:56:00,72.6,61.9,29.88,South,180,0.0,0.0,69,0.00,,,0.00,WUHU216HW,2013-05-18 02:56:00,
2013-05-17 23:01:00,72.5,61.7,29.88,South,180,0.0,0.0,69,0.00,,,0.00,WUHU216HW,2013-05-18 03:01:00,
2013-05-17 23:06:00,72.3,62.0,29.88,South,180,0.0,0.0,70,0.00,,,0.00,WUHU216HW,2013-05-18 03:06:00,
2013-05-17 23:11:00,72.1,61.8,29.89,South,180,0.0,0.0,70,0.00,,,0.00,WUHU216HW,2013-05-18 03:11:00,
2013-05-17 23:16:00,71.9,61.7,29.89,South,180,0.0,0.0,70,0.00,,,0.00,WUHU216HW,2013-05-18 03:16:00,
2013-05-17 23:21:00,71.7,61.8,29.89,South,180,0.0,0.0,71,0.00,,,0.00,WUHU216HW,2013-05-18 03:21:00,
2013-05-17 23:26:00,71.6,61.7,29.89,South,180,0.0,0.0,71,0.00,,,0.00,WUHU216HW,2013-05-18 03:26:00,
2013-05-17 23:31:00,71.4,61.9,29.89,South,180,0.0,0.0,72,0.00,,,0.00,WUHU216HW,2013-05-18 03:31:00,
2013-05-17 23:36:00,71.4,61.9,29.89,South,180,0.0,0.0,72,0.00,,,0.00,WUHU216HW,2013-05-18 03:36:00,
2013-05-17 23:41:00,71.4,61.9,29.89,South,180,0.0,0.0,72,0.00,,,0.00,WUHU216HW,2013-05-18 03:41:00,
2013-05-17 23:46:00,71.2,61.7,29.89,South,180,0.0,0.0,72,0.00,,,0.00,WUHU216HW,2013-05-18 03:46:00,
2013-05-17 23:51:00,71.2,61.7,29.89,South,180,0.0,0.0,72,0.00,,,0.00,WUHU216HW,2013-05-18 03:51:00,
2013-05-17 23:56:00,71.0,61.5,29.89,South,180,0.0,0.0,72,0.00,,,0.00,WUHU216HW,2013-05-18 03:56:00,